Starlink 31146

operational
NORAD ID: 58769 Int'l Des: 2024-011 Owner: SPXS Country: US Constellation: starlink
LEOCIRCULAR

About Starlink 31146

Description loading...

Live Position

Loading 3D Globe...

Upcoming Passes

Altitude History

Altitude vs Time

uPlot chart will show altitude changes over time

Two-Line Element Set

1 58769U 24011E 25258.00855311 .00001697 00000-0 69396-4 0 9998
2 58769 53.1590 109.6349 0001050 80.9567 279.1552 15.30197211 93376
Epoch: Sep 15, 2025 • Age: 20 hours

Current Status

Altitude 477.0 km
Velocity 7.63 km/s
Sub-Earth Point -4.87°S, 2.92°W
Launch Date Jan 14, 2024
Age 1.6 years
Type internet

Technical Details

Classification Payload
Mass 730.00 kg
Dry Mass 700.00 kg
Total Mass 730.00 kg
Length 0.30 m
Diameter 4.10 m
Span 29.00 m
Shape Box + pan
Manufacturer SPXS
Bus Type Starlink V2M
Phase Status In Orbit
Owner/State SPXS/US

Large Constellations

Loading constellations...